Find Starlink 35362

NORAD ID: 65888 Int'l Des: 2025-224 Owner: SPXS Country: US Constellation: starlink operational
LEOCIRCULAR

Live-Position

3D-Globus wird geladen...

Über Starlink 35362

Beschreibung wird geladen...

Nächste Überflüge

Passes for default location (London). Set your location on the main map for personalized predictions.

Höhenverlauf

Loading altitude history...

Zweizeiliger Elementsatz

1 65888U 25224G 26105.53809618 .00005762 00000-0 20652-3 0 9992
2 65888 53.1603 200.3603 0001080 83.6587 276.4537 15.30200347 30467
Epoch: 15. Apr. 2026 • Age: 21 hours

Aktueller Status

Höhe 480.2 km
Geschwindigkeit 7.63 km/s
Subsatellitenpunkt -17.23°S, 32.5°E
Startdatum 7. Okt. 2025
Alter 0.5 years
Typ internet

Technische Details

Klassifizierung Payload
Masse 575.00 kg
Trockenmasse 530.00 kg
Gesamtmasse 575.00 kg
Länge 0.30 m
Durchmesser 4.10 m
Spannweite 29.00 m
Form Box + pan
Hersteller SPXS
Bus-Typ Starlink V2MO
Phasenstatus In Orbit
Besitzer/Staat SPXS/US

Most Searched